TimeMDT,TemperatureF,Dew PointF,Humidity,Sea Level PressureIn,VisibilityMPH,Wind Direction,Wind SpeedMPH,Gust SpeedMPH,PrecipitationIn,Events,Conditions,WindDirDegrees,DateUTC
12:17 AM,42.8,12.2,29,30.16,10.0,East,8.1,-,N/A,,Clear,100,2014-03-30 06:17:00
12:37 AM,42.8,12.2,29,30.15,10.0,East,5.8,-,N/A,,Clear,80,2014-03-30 06:37:00
12:57 AM,42.8,12.2,29,30.14,10.0,East,6.9,-,N/A,,Clear,80,2014-03-30 06:57:00
1:19 AM,42.8,12.2,29,30.12,10.0,East,9.2,-,N/A,,Clear,100,2014-03-30 07:19:00
1:57 AM,42.8,14.0,31,30.10,10.0,ESE,11.5,-,N/A,,Clear,120,2014-03-30 07:57:00
2:17 AM,42.8,12.2,29,30.10,10.0,ESE,12.7,-,N/A,,Clear,120,2014-03-30 08:17:00
2:37 AM,44.6,12.2,27,30.09,10.0,East,11.5,17.3,N/A,,Clear,100,2014-03-30 08:37:00
2:57 AM,44.6,12.2,27,30.09,10.0,SE,13.8,20.7,N/A,,Clear,130,2014-03-30 08:57:00
3:17 AM,44.6,12.2,27,30.09,10.0,SSE,8.1,23.0,N/A,,Clear,160,2014-03-30 09:17:00
3:37 AM,44.6,12.2,27,30.07,10.0,ESE,12.7,26.5,N/A,,Clear,120,2014-03-30 09:37:00
3:57 AM,44.6,12.2,27,30.06,10.0,ESE,17.3,21.9,N/A,,Clear,110,2014-03-30 09:57:00
4:20 AM,44.6,12.2,27,30.06,10.0,SE,13.8,26.5,N/A,,Clear,140,2014-03-30 10:20:00
4:39 AM,42.8,12.2,29,30.05,10.0,SSE,12.7,24.2,N/A,,Clear,150,2014-03-30 10:39:00
4:57 AM,42.8,14.0,31,30.05,10.0,SE,18.4,21.9,N/A,,Clear,130,2014-03-30 10:57:00
5:58 AM,42.8,14.0,31,30.04,10.0,ESE,17.3,29.9,N/A,,Clear,120,2014-03-30 11:58:00
6:17 AM,42.8,15.8,34,30.04,10.0,ESE,13.8,21.9,N/A,,Clear,120,2014-03-30 12:17:00
6:39 AM,42.8,15.8,34,30.02,10.0,SE,15.0,24.2,N/A,,Clear,130,2014-03-30 12:39:00
6:59 AM,42.8,15.8,34,30.01,10.0,SE,18.4,21.9,N/A,,Clear,130,2014-03-30 12:59:00
7:37 AM,41.0,15.8,36,30.01,10.0,SSE,12.7,24.2,N/A,,Scattered Clouds,150,2014-03-30 13:37:00
7:57 AM,42.8,15.8,34,30.02,10.0,SE,12.7,21.9,N/A,,Mostly Cloudy,140,2014-03-30 13:57:00
8:17 AM,42.8,14.0,31,30.02,10.0,SSE,13.8,-,N/A,,Overcast,150,2014-03-30 14:17:00
8:37 AM,42.8,14.0,31,30.01,10.0,ESE,9.2,17.3,N/A,,Overcast,110,2014-03-30 14:37:00
9:39 AM,44.6,10.4,25,29.99,10.0,SSE,12.7,17.3,N/A,,Mostly Cloudy,160,2014-03-30 15:39:00
10:18 AM,44.6,12.2,27,29.98,10.0,SSE,9.2,24.2,N/A,,Scattered Clouds,160,2014-03-30 16:18:00
10:38 AM,46.4,10.4,23,29.97,10.0,SSW,6.9,24.2,N/A,,Scattered Clouds,200,2014-03-30 16:38:00
10:57 AM,46.4,10.4,23,29.96,10.0,South,16.1,28.8,N/A,,Scattered Clouds,190,2014-03-30 16:57:00
11:17 AM,46.4,10.4,23,29.96,10.0,South,11.5,25.3,N/A,,Mostly Cloudy,180,2014-03-30 17:17:00
11:40 AM,46.4,10.4,23,29.96,10.0,SE,11.5,21.9,N/A,,Mostly Cloudy,130,2014-03-30 17:40:00
12:17 PM,46.4,10.4,23,29.93,10.0,South,20.7,33.4,N/A,,Scattered Clouds,190,2014-03-30 18:17:00
12:37 PM,44.6,10.4,25,29.93,10.0,South,21.9,34.5,N/A,,Scattered Clouds,190,2014-03-30 18:37:00
12:58 PM,44.6,10.4,25,29.93,10.0,SSE,12.7,28.8,N/A,,Mostly Cloudy,150,2014-03-30 18:58:00
1:17 PM,44.6,12.2,27,29.91,10.0,South,13.8,32.2,N/A,,Overcast,170,2014-03-30 19:17:00
1:39 PM,42.8,14.0,31,29.89,10.0,South,18.4,29.9,N/A,,Overcast,170,2014-03-30 19:39:00
2:17 PM,42.8,19.4,39,29.87,10.0,SSE,16.1,24.2,N/A,,Overcast,150,2014-03-30 20:17:00
2:57 PM,42.8,17.6,36,29.84,10.0,ESE,8.1,28.8,N/A,,Overcast,110,2014-03-30 20:57:00
3:17 PM,42.8,17.6,36,29.83,10.0,SSE,15.0,27.6,N/A,,Mostly Cloudy,160,2014-03-30 21:17:00
3:37 PM,42.8,15.8,34,29.79,10.0,SSE,16.1,25.3,N/A,,Mostly Cloudy,150,2014-03-30 21:37:00
3:58 PM,44.6,14.0,29,29.78,10.0,SSE,20.7,35.7,N/A,,Scattered Clouds,150,2014-03-30 21:58:00
4:17 PM,44.6,15.8,31,29.75,10.0,South,3.5,26.5,N/A,,Mostly Cloudy,190,2014-03-30 22:17:00
4:39 PM,44.6,14.0,29,29.71,10.0,South,23.0,38.0,N/A,,Overcast,170,2014-03-30 22:39:00
5:00 PM,44.6,12.2,27,29.73,10.0,SW,13.8,28.8,N/A,,Mostly Cloudy,220,2014-03-30 23:00:00
5:17 PM,44.6,12.2,27,29.72,7.0,South,28.8,42.6,N/A,,Overcast,190,2014-03-30 23:17:00
5:57 PM,44.6,10.4,25,29.71,3.0,SSW,27.6,57.5,N/A,,Haze,210,2014-03-30 23:57:00
6:17 PM,42.8,15.8,34,29.74,2.5,SSW,20.7,47.2,N/A,,Haze,200,2014-03-31 00:17:00
7:17 PM,39.2,17.6,42,29.80,7.0,SSW,23.0,42.6,N/A,,Overcast,210,2014-03-31 01:17:00
7:59 PM,35.6,15.8,44,29.86,10.0,WSW,17.3,44.9,N/A,,Overcast,240,2014-03-31 01:59:00
8:19 PM,33.8,10.4,38,29.89,10.0,SW,17.3,32.2,N/A,,Overcast,220,2014-03-31 02:19:00
8:37 PM,33.8,3.2,28,29.89,10.0,SW,13.8,33.4,N/A,,Scattered Clouds,220,2014-03-31 02:37:00
8:59 PM,32.0,5.0,32,29.92,10.0,SW,9.2,29.9,N/A,,Scattered Clouds,230,2014-03-31 02:59:00
9:17 PM,32.0,6.8,35,29.91,10.0,SW,26.5,33.4,N/A,,Mostly Cloudy,230,2014-03-31 03:17:00
9:37 PM,30.2,6.8,37,29.93,10.0,WSW,17.3,27.6,N/A,,Scattered Clouds,240,2014-03-31 03:37:00
9:57 PM,30.2,8.6,40,29.93,10.0,SW,12.7,27.6,N/A,,Mostly Cloudy,230,2014-03-31 03:57:00
10:19 PM,30.2,10.4,44,29.94,10.0,West,15.0,21.9,N/A,,Overcast,260,2014-03-31 04:19:00
10:57 PM,30.2,12.2,47,29.95,10.0,WSW,10.4,19.6,N/A,,Overcast,240,2014-03-31 04:57:00
11:37 PM,28.4,14.0,55,29.95,10.0,SW,4.6,-,N/A,,Overcast,230,2014-03-31 05:37:00
11:57 PM,28.4,15.8,59,29.96,10.0,WSW,13.8,-,N/A,,Overcast,240,2014-03-31 05:57:00